GFSNIL_prec_cthk_159.txt.gz
RH
49 47 60 57 61 57 52 57 53 55 55 49 51 53 55 52 48 53 54 46 48 47
50 50 50 57 58 62 55 58 53 59 58 54 52 50 51 58 60 53 50 50 58 52
48 49 51 54 54 54 51 65 62 70 68 56 57 50 51 53 55 49 50 57 64 63
50 49 49 53 54 54 49 56 56 55 53 53 52 48 49 48 47 56 62 58 61 63
52 50 52 53 56 55 67 59 48 50 54 42 44 45 44 46 54 53 58 66 64 63
64 58 54 50 49 53 51 46 47 48 42 40 44 44 45 58 59 58 63 66 65 64
69 62 53 52 47 42 41 45 46 46 39 38 40 44 44 52 59 59 62 63 67 65
64 71 67 57 50 48 45 39 40 42 41 41 44 45 42 45 48 49 53 57 67 67
76 68 65 71 59 58 48 48 47 44 42 41 41 41 45 46 45 46 52 58 59 63
87 81 64 65 64 75 60 57 60 54 51 45 40 39 41 44 47 47 47 51 54 59
93 89 83 75 68 72 69 61 63 63 61 60 55 48 45 43 47 50 52 45 45 46
70 81 89 93 89 88 77 75 73 66 63 65 67 63 62 64 61 59 58 58 51 45
57 60 68 83 92 88 80 82 84 81 86 85 78 75 78 81 79 75 70 74 68 63
61 59 60 69 77 88 85 78 84 85 84 87 87 83 83 84 86 89 86 84 77 75

GFSNIL_prec_cthk_162.txt.gz
RH
61 56 58 61 61 61 67 55 55 50 50 50 51 54 59 57 52 48 47 49 46 44
56 59 60 70 69 64 62 55 59 55 59 58 56 56 54 58 52 49 50 46 53 52
51 54 56 59 67 65 70 59 77 61 68 68 60 56 51 54 58 53 46 49 55 66
54 53 59 57 57 65 66 66 68 73 69 73 61 57 52 53 51 47 53 53 54 66
56 54 52 55 58 61 61 62 68 66 70 65 53 54 51 51 46 51 58 61 62 61
55 54 52 48 53 63 59 64 69 67 59 61 45 47 47 47 52 56 58 62 68 67
67 56 56 51 47 51 57 60 58 53 55 51 46 48 50 49 56 62 62 67 68 68
77 74 60 59 51 46 47 49 47 51 53 51 46 47 48 46 52 58 61 63 59 69
84 77 64 59 56 51 48 46 48 45 46 48 47 47 47 46 42 45 49 50 56 62
79 76 64 64 65 61 55 53 54 53 50 49 47 45 44 44 46 45 46 47 47 50
72 79 81 78 70 71 67 64 59 59 59 57 53 52 46 43 43 44 46 46 47 48
64 78 88 86 81 76 68 69 71 68 68 71 64 65 62 56 52 48 50 54 56 56
60 62 70 84 92 90 83 89 88 87 83 76 71 71 72 77 78 75 72 69 67 66
53 59 59 60 65 81 93 98 92 95 91 91 89 84 82 81 80 81 82 83 84 81

GFSNIL_prec_cthk_165.txt.gz
RH
50 51 57 63 64 57 61 61 54 50 49 48 51 54 54 57 56 58 59 58 52 43
53 50 53 55 57 62 63 68 66 56 53 52 54 57 62 65 65 60 54 55 55 51
53 52 50 54 61 64 63 65 67 61 59 61 65 63 60 53 59 58 56 58 57 57
49 51 49 51 55 58 60 60 62 67 69 65 75 73 63 55 57 61 58 55 62 62
57 47 44 46 52 55 57 59 62 62 65 72 75 69 65 60 57 56 52 55 66 61
69 56 47 46 49 53 55 56 55 63 63 66 72 76 59 61 64 53 52 60 63 65
68 67 53 48 48 51 56 57 53 58 67 64 66 57 51 50 53 51 61 63 63 69
77 72 58 52 51 50 50 59 57 58 63 58 55 54 51 50 51 53 62 66 66 71
80 72 64 62 57 56 52 51 53 54 53 51 52 50 48 49 50 50 58 63 64 66
79 79 75 72 73 67 55 54 49 48 52 50 50 51 51 50 50 49 47 49 52 53
66 72 81 79 77 74 64 58 56 54 51 53 50 51 51 50 50 49 51 51 52 50
58 65 72 77 76 67 64 68 66 64 61 58 59 59 59 55 53 51 47 45 47 48
53 59 67 75 82 81 77 76 75 74 70 66 65 65 67 67 67 66 58 54 49 48
44 55 56 58 66 78 81 82 86 88 81 76 75 76 78 81 77 78 81 79 76 76

GFSNIL_prec_cthk_168.txt.gz
RH
52 53 49 51 56 63 60 55 54 49 50 47 41 43 50 55 56 56 61 58 57 48
53 52 51 50 56 60 56 50 54 53 49 47 43 46 51 54 61 60 55 55 54 48
54 53 50 50 55 52 49 52 54 56 55 51 50 53 55 56 56 60 58 57 59 54
52 53 53 52 48 50 53 55 56 58 58 56 56 57 63 63 57 55 57 57 55 57
58 54 50 51 51 52 55 59 55 54 55 56 64 61 71 69 62 53 57 60 54 56
68 68 62 56 50 49 52 54 56 54 55 56 63 65 67 68 62 57 58 57 51 56
75 74 71 64 59 52 51 52 53 53 55 56 59 65 67 70 61 57 63 55 53 60
77 74 74 65 61 58 54 53 52 55 54 52 61 64 63 60 52 49 53 49 55 60
69 68 72 74 71 61 58 56 54 56 56 54 58 64 58 55 51 48 48 51 55 63
61 79 86 88 79 67 61 58 53 51 56 55 57 59 54 54 53 51 49 50 53 59
53 66 82 84 78 69 65 63 62 58 53 49 49 56 58 58 57 54 51 49 47 47
43 54 63 70 78 81 80 78 74 71 61 51 48 49 52 54 54 53 52 51 50 48
37 44 51 60 74 76 79 82 83 78 70 62 61 60 55 57 56 54 56 52 49 49
31 36 44 53 57 67 76 85 82 75 72 73 74 69 66 61 62 65 67 64 62 62

GFSNIL_prec_cthk_171.txt.gz
RH
54 56 55 53 54 53 52 56 58 52 47 45 43 38 39 44 49 53 56 59 52 55
55 52 52 53 53 52 57 60 59 55 54 47 46 39 38 47 53 60 58 54 54 52
56 55 53 52 52 52 59 64 58 55 57 56 49 46 45 47 51 54 59 59 59 55
56 56 56 55 54 55 56 57 54 55 56 56 56 50 49 51 56 56 55 59 63 61
53 56 57 56 56 55 53 52 54 55 57 57 58 58 57 55 60 63 59 55 61 58
63 60 57 54 55 56 55 53 53 57 59 57 57 59 60 61 61 66 61 56 59 60
65 68 64 62 59 59 57 53 52 54 52 54 55 57 58 63 65 66 63 56 53 56
73 72 74 75 75 66 59 55 51 53 53 54 54 56 58 64 65 64 65 55 54 56
61 65 69 75 74 73 69 60 56 53 51 52 54 53 52 60 65 63 56 50 48 47
56 61 68 68 70 75 77 69 62 56 53 52 53 56 54 57 62 57 54 49 47 47
36 43 51 59 74 83 85 80 71 61 54 52 52 57 58 57 58 56 50 50 49 47
30 34 41 51 67 77 85 82 75 65 57 59 60 63 52 52 53 54 52 52 50 46
30 31 35 41 49 60 74 77 76 76 73 63 65 68 66 59 52 47 49 47 46 49
28 28 30 34 41 50 59 69 75 77 80 83 80 79 75 70 63 60 55 52 52 53

GFSNIL_prec_cthk_174.txt.gz
RH
61 62 62 60 66 64 63 62 57 55 48 43 46 46 43 48 47 49 50 54 55 54
56 56 60 61 59 58 58 56 55 57 55 50 48 46 45 45 53 57 58 61 56 56
60 56 55 56 54 55 56 53 56 59 60 60 57 53 50 49 50 54 57 62 62 58
59 59 56 56 52 50 53 54 58 59 54 54 57 60 59 56 57 57 58 56 57 61
56 58 59 57 55 54 53 55 54 55 51 52 54 58 63 60 60 62 68 71 61 58
67 55 55 58 58 57 53 54 57 54 52 51 55 53 59 61 62 62 67 75 73 61
77 65 61 61 58 57 56 56 56 54 53 53 56 56 55 56 59 64 68 69 69 62
72 69 67 66 66 61 58 60 60 60 57 55 56 53 53 53 58 56 62 72 68 66
60 61 65 71 72 73 74 74 71 63 59 57 55 55 51 51 55 56 60 62 63 59
50 57 59 61 64 66 71 70 70 68 64 61 58 52 49 50 51 53 54 60 62 57
37 43 45 50 53 61 62 64 70 72 71 68 64 54 51 50 53 56 57 59 60 56
30 31 34 36 40 48 57 67 73 78 79 73 69 59 58 54 52 58 58 58 59 59
29 30 29 32 35 40 45 53 67 80 84 75 73 68 59 63 65 66 63 56 53 53
31 31 32 31 31 34 38 46 59 67 77 79 80 77 70 66 65 66 71 72 69 65

GFSNIL_prec_cthk_180.txt.gz
RH
53 61 67 59 61 60 59 58 67 66 52 35 35 45 46 43 43 52 57 50 42 52
47 48 50 53 54 56 59 77 79 75 76 50 39 42 42 52 44 48 58 58 58 54
47 48 53 57 56 55 52 69 62 72 83 60 43 44 48 52 50 49 50 53 61 65
51 50 48 54 52 53 54 54 48 54 54 47 40 47 52 50 51 52 77 60 62 68
71 66 56 48 48 49 47 46 45 44 42 41 46 51 50 48 49 54 54 51 57 64
75 73 71 63 53 50 48 46 46 45 44 43 45 48 46 50 47 50 56 53 51 53
75 74 74 68 72 60 49 49 49 52 53 51 49 47 45 45 46 46 49 53 58 59
71 72 74 73 70 70 61 57 55 57 57 55 55 57 50 47 51 52 50 51 52 54
60 72 78 80 79 75 72 71 70 67 65 62 60 63 64 61 51 50 51 53 54 55
50 54 65 69 74 73 76 76 77 78 79 71 69 74 75 81 71 56 56 56 54 57
47 44 42 45 51 60 59 61 68 68 70 70 70 73 75 79 76 72 64 64 57 55
36 35 34 29 34 46 52 51 53 55 57 60 65 68 67 69 76 79 75 73 61 52
31 30 30 37 35 34 34 34 38 43 45 49 50 52 63 72 76 78 83 78 70 60
33 32 34 36 36 35 35 33 31 31 32 35 41 52 66 70 76 84 88 81 78 83

GFSNIL_prec_cthk_183.txt.gz
RH
56 65 63 55 61 58 60 66 63 52 52 49 43 39 39 48 45 45 56 54 49 49
53 58 64 62 61 62 60 59 65 64 60 51 43 43 41 40 45 42 49 56 59 58
44 46 47 49 52 57 54 57 69 65 67 62 47 47 44 44 51 48 50 50 54 65
44 44 45 48 54 55 54 53 62 69 54 53 48 48 47 49 51 51 51 72 63 62
50 49 46 45 50 54 50 53 56 55 51 49 47 48 50 49 49 53 55 56 55 59
61 66 63 58 52 47 48 46 49 51 50 47 47 46 50 51 49 50 49 55 58 54
65 67 69 67 61 61 54 50 47 48 48 49 49 48 48 49 49 48 47 48 51 55
62 68 69 70 69 68 66 60 56 52 53 55 55 54 54 55 53 49 48 52 52 54
49 57 64 66 67 72 73 63 68 64 60 61 63 61 60 62 63 64 56 48 51 54
45 50 53 62 70 71 70 70 77 72 76 74 72 77 73 73 75 78 77 66 54 54
43 44 45 50 56 59 61 66 69 70 70 71 70 71 72 71 72 74 76 76 69 63
35 37 36 35 35 38 40 47 55 55 58 62 61 62 65 67 68 69 71 72 77 74
29 29 29 30 32 30 31 35 39 42 41 44 43 43 48 50 51 58 64 69 77 81
32 29 29 31 29 33 33 29 29 28 31 31 31 33 36 42 51 60 65 71 77 80

GFSNIL_prec_cthk_186.txt.gz
RH
66 68 74 71 63 61 52 47 56 51 48 51 46 45 45 45 43 40 47 51 49 55
60 64 72 60 55 64 55 57 60 57 51 53 48 44 40 41 45 43 44 52 52 53
49 57 62 60 61 63 63 57 59 61 60 59 53 47 45 47 45 48 50 50 49 58
43 45 52 54 51 51 53 51 54 63 63 67 57 50 48 46 50 50 49 50 62 57
43 44 44 45 48 50 51 52 51 57 64 57 56 51 46 44 51 52 53 53 62 60
46 49 47 44 45 50 52 50 50 51 51 51 50 50 47 43 49 49 50 54 58 59
61 63 65 62 56 50 46 45 45 45 47 48 44 44 45 44 46 46 47 48 49 52
69 69 70 71 70 62 59 52 46 47 45 45 46 46 46 46 47 46 46 45 47 49
74 71 70 75 73 73 69 70 63 56 55 51 50 53 55 54 54 57 55 54 49 49
59 60 61 72 73 80 75 80 79 70 69 64 61 62 62 60 61 61 61 66 73 66
52 57 58 67 64 69 81 84 83 76 79 75 75 74 74 73 75 74 73 72 73 75
48 52 56 52 61 65 66 67 70 76 79 77 74 73 71 70 70 68 68 69 70 72
45 52 51 49 46 43 44 50 49 47 56 58 58 60 59 53 50 54 57 56 61 64
44 44 46 46 46 45 42 37 33 33 37 38 37 38 41 41 42 39 44 55 62 67